This is the latest recevied weather packets stored in our database for station/object I2HLY-4. If no packets are shown the sender has not sent any weather packets the latest 10 day(s).
| Time | Temp. | Humidity | Pressure | Rain* | Wind** | Luminosity | Snow |
|---|---|---|---|---|---|---|---|
| 1777703548 | 8.89° C | 77% | 1027.7 hPa | 0 mm | - | - | - |
| 1777702647 | 7.78° C | 78% | 1027.6 hPa | 0 mm | - | - | - |
| 1777701750 | 7.22° C | 79% | 1027.6 hPa | 0 mm | - | - | - |
| 1777700850 | 6.67° C | 81% | 1027.7 hPa | 0 mm | - | - | - |
| 1777699949 | 6.67° C | 81% | 1027.6 hPa | 0 mm | - | - | - |
| 1777699032 | 6.11° C | 80% | 1027.6 hPa | 0 mm | - | - | - |
| 1777698132 | 6.11° C | 80% | 1027.5 hPa | 0 mm | - | - | - |
| 1777697236 | 6.11° C | 80% | 1027.7 hPa | 0 mm | - | - | - |
| 1777696335 | 6.11° C | 81% | 1027.5 hPa | 0 mm | - | - | - |
| 1777695435 | 6.11° C | 81% | 1027.5 hPa | 0 mm | - | - | - |
| 1777694540 | 6.11° C | 80% | 1027.5 hPa | 0 mm | - | - | - |
| 1777693639 | 6.11° C | 80% | 1027.5 hPa | 0 mm | - | - | - |
| 1777692738 | 6.11° C | 79% | 1027.5 hPa | 0 mm | - | - | - |
| 1777691841 | 6.11° C | 79% | 1027.3 hPa | 0 mm | - | - | - |
| 1777690940 | 6.67° C | 78% | 1027.4 hPa | 0 mm | - | - | - |
| 1777690045 | 6.67° C | 78% | 1027.5 hPa | 0 mm | - | - | - |
| 1777689142 | 6.67° C | 78% | 1027.5 hPa | 0 mm | - | - | - |
| 1777688241 | 6.11° C | 80% | 1027.5 hPa | 0 mm | - | - | - |
| 1777687342 | 6.11° C | 80% | 1027.4 hPa | 0 mm | - | - | - |
| 1777686442 | 6.11° C | 78% | 1027.4 hPa | 0 mm | - | - | - |
| 1777685545 | 6.11° C | 79% | 1027.4 hPa | 0 mm | - | - | - |
| 1777684646 | 6.67° C | 77% | 1027.5 hPa | 0 mm | - | - | - |
| 1777682832 | 6.67° C | 78% | 1027.5 hPa | 0 mm | - | - | - |
| 1777681943 | 6.67° C | 77% | 1027.6 hPa | 0 mm | - | - | - |
| 1777681045 | 6.67° C | 78% | 1027.5 hPa | 0 mm | - | - | - |
* Rain latest hour (hover to see other rain measurements)
** Current wind speed in m/s (hover to see current wind gust speed)